This demonstration page uses our WeatherBlox Daily Observations layout. Learn more.

40.92945, -100.16068

Hourly Observations for August 12, 2016

Temp ( °F °C ) Dew Point ( °F °C ) Humidity (%) Winds ( mph kmh ) Pressure ( in mb ) Visibility ( mi km ) Precip ( " mm )
12:15 am 00:15 Partly Cloudy 68 20 65 18.3 90 90 NW 9 15 29.88 1012 10 16.09344 0 0
12:35 am 00:35 Cloudy 69 20.7 65 18.5 87 87 NW 8 13 29.88 1012 10 16.09344 0 0
12:55 am 00:55 Mostly Cloudy 69 20.4 65 18.5 89 89 NW 5 7 29.88 1012 10 16.09344 0 0
1:15 am 01:15 Mostly Cloudy 69 20.5 66 18.9 91 91 Calm 29.88 1012 10 16.09344 0 0
1:35 am 01:35 Cloudy with Nearby Thunderstorms 66 18.8 61 16.1 84 84 NW 38 61 29.94 1014 5 8.04672 0.02 0.508
1:50 am 01:50 Cloudy with Heavy Thunderstorms 63 17.3 61 16.3 94 94 NW 24 39 29.97 1015 1.25 2.01168 0.44 11.176
2:15 am 02:15 undefined 64 18 62 16.9 93 93 NNW 25 41 29.97 1015 10 16.09344 0.03 0.762
2:35 am 02:35 Cloudy with Rain 65 18.5 63 17 91 91 NNW 25 41 29.94 1014 10 16.09344 0.05 1.27
2:55 am 02:55 Cloudy with Light Rain 65 18.5 63 17 91 91 NW 10 17 29.94 1014 10 16.09344 0.05 1.27
3:15 am 03:15 Cloudy with Rain 65 18.5 63 17 91 91 NW 8 13 29.94 1014 10 16.09344 0 0
3:35 am 03:35 Cloudy with Light Rain 66 18.7 62 16.9 89 89 ENE 13 20 29.88 1012 10 16.09344 0 0
3:55 am 03:55 Mostly Cloudy 67 19.3 62 16.7 85 85 E 9 15 29.83 1010 10 16.09344 0.01 0.254
4:15 am 04:15 Clear 67 19.5 62 16.6 83 83 SE 6 9 29.83 1010 10 16.09344 0 0
4:35 am 04:35 Clear 66 18.7 63 17 90 90 NW 7 11 29.88 1012 10 16.09344 0 0
4:55 am 04:55 Clear 65 18.5 63 17 91 91 N 6 9 29.88 1012 10 16.09344 0 0
5:15 am 05:15 Clear 66 18.7 63 17.1 90 90 W 6 9 29.91 1013 10 16.09344 0 0
5:35 am 05:35 Clear 65 18.6 63 17 90 90 W 9 15 29.94 1014 10 16.09344 0 0
5:55 am 05:55 Clear 65 18.6 62 16.8 89 89 WNW 8 13 29.94 1014 10 16.09344 0 0
6:15 am 06:15 Partly Cloudy 65 18.5 62 16.7 89 89 WNW 6 9 29.97 1015 10 16.09344 0 0
6:35 am 06:35 Mostly Cloudy 65 18.2 62 16.5 90 90 NW 8 13 29.97 1015 10 16.09344 0 0
6:55 am 06:55 Partly Cloudy 64 18 62 16.7 92 92 WNW 8 13 29.97 1015 10 16.09344 0 0
7:15 am 07:15 Sunny 64 18 62 16.8 93 93 NW 7 11 29.97 1015 10 16.09344 0 0
7:35 am 07:35 Sunny 64 18 63 17 94 94 NW 6 9 29.97 1015 10 16.09344 0 0
7:55 am 07:55 Sunny 65 18.2 63 17.1 93 93 NNW 5 7 29.97 1015 10 16.09344 0 0
8:15 am 08:15 Partly Cloudy 66 18.9 64 17.6 92 92 N 7 11 29.97 1015 7 11.265408 0 0
8:35 am 08:35 Partly Cloudy 67 19.2 64 17.5 90 90 N 8 13 29.97 1015 10 16.09344 0 0
8:55 am 08:55 Partly Cloudy 67 19.5 64 17.6 89 89 N 6 9 29.97 1015 10 16.09344 0 0
9:15 am 09:15 Partly Cloudy 68 20 64 17.7 87 87 N 7 11 29.97 1015 10 16.09344 0 0
9:35 am 09:35 Mostly Cloudy 68 20.2 64 17.7 86 86 NNW 7 11 29.94 1014 10 16.09344 0 0
9:55 am 09:55 Mostly Cloudy 68 20 64 17.5 86 86 N 6 9 29.97 1015 10 16.09344 0 0
10:15 am 10:15 Mostly Cloudy 69 20.8 64 17.5 82 82 N 10 17 29.94 1014 10 16.09344 0 0
10:35 am 10:35 Mostly Cloudy 72 22.1 65 18.1 78 78 NNW 12 19 29.94 1014 10 16.09344 0 0
10:55 am 10:55 Partly Cloudy 72 22.3 64 17.6 75 75 N 13 20 29.94 1014 10 16.09344 0 0
11:15 am 11:15 Partly Cloudy 73 22.7 64 17.6 73 73 N 12 19 29.94 1014 10 16.09344 0 0
11:35 am 11:35 Partly Cloudy 75 23.7 65 18.1 71 71 N 9 15 29.91 1013 10 16.09344 0 0
11:55 am 11:55 Sunny 75 24.1 64 17.6 67 67 N 9 15 29.91 1013 10 16.09344 0 0
12:15 pm 12:15 Sunny 77 25 65 18.1 66 66 N 9 15 29.91 1013 10 16.09344 0 0
12:35 pm 12:35 Sunny 77 24.9 62 16.6 60 60 N 13 20 29.91 1013 10 16.09344 0 0
12:55 pm 12:55 Sunny 78 25.5 62 16.6 58 58 N 9 15 29.91 1013 10 16.09344 0 0
1:15 pm 13:15 Sunny 78 25.8 61 15.9 54 54 N 10 17 29.91 1013 10 16.09344 0 0
1:35 pm 13:35 Sunny 79 26.3 61 15.9 53 53 N 7 11 29.91 1013 10 16.09344 0 0
1:55 pm 13:55 Sunny 80 26.7 60 15.4 50 50 N 10 17 29.91 1013 10 16.09344 0 0
2:15 pm 14:15 Sunny 81 27.3 60 15.3 48 48 N 9 15 29.88 1012 10 16.09344 0 0
2:35 pm 14:35 Sunny 82 27.5 60 15.7 49 49 NNE 8 13 29.88 1012 10 16.09344 0 0
2:55 pm 14:55 Sunny 83 28.1 61 15.9 47 47 N 9 15 29.88 1012 10 16.09344 0 0
3:15 pm 15:15 Sunny 83 28.1 62 16.4 49 49 N 7 11 29.88 1012 10 16.09344 0 0
3:35 pm 15:35 Partly Cloudy 83 28.4 61 15.9 47 47 NE 8 13 29.88 1012 10 16.09344 0 0
3:55 pm 15:55 Partly Cloudy 83 28.5 60 15.6 46 46 N 8 13 29.88 1012 10 16.09344 0 0
4:15 pm 16:15 Partly Cloudy 83 28.5 60 15.5 45 45 NNW 7 11 29.88 1012 10 16.09344 0 0
4:35 pm 16:35 Partly Cloudy 84 28.8 59 15 43 43 N 7 11 29.88 1012 10 16.09344 0 0
4:55 pm 16:55 Partly Cloudy 83 28.4 59 15.2 45 45 NNE 6 9 29.88 1012 10 16.09344 0 0
5:15 pm 17:15 Partly Cloudy 83 28.5 57 14.1 41 41 N 5 7 29.88 1012 10 16.09344 0 0
5:35 pm 17:35 Sunny 83 28.5 59 15 44 44 N 7 11 29.88 1012 10 16.09344 0 0
5:55 pm 17:55 Sunny 83 28.3 59 14.8 44 44 NNW 5 7 29.88 1012 10 16.09344 0 0
6:15 pm 18:15 Sunny 83 28.1 61 15.9 47 47 N 5 7 29.88 1012 10 16.09344 0 0
6:35 pm 18:35 Partly Cloudy 82 27.7 62 16.5 51 51 Calm 29.88 1012 10 16.09344 0 0
6:55 pm 18:55 Partly Cloudy 82 27.5 62 16.7 52 52 NNE 3 6 29.88 1012 10 16.09344 0 0
7:15 pm 19:15 Partly Cloudy 81 27 63 17.2 55 55 N 3 6 29.85 1011 10 16.09344 0 0
7:35 pm 19:35 Sunny 80 26.5 65 18.5 62 62 Calm 29.91 1013 10 16.09344 0 0
7:55 pm 19:55 Sunny 78 25.7 64 17.7 61 61 Calm 29.91 1013 10 16.09344 0 0
8:15 pm 20:15 Sunny 76 24.5 65 18.5 69 69 Calm 29.91 1013 10 16.09344 0 0
8:35 pm 20:35 Sunny 75 23.9 66 18.7 73 73 Calm 29.91 1013 10 16.09344 0 0
8:55 pm 20:55 Clear 73 22.5 65 18.2 77 77 Calm 29.94 1014 10 16.09344 0 0
9:15 pm 21:15 Clear 71 21.5 64 17.7 79 79 NE 3 6 29.94 1014 10 16.09344 0 0
9:35 pm 21:35 Hazy 70 21.1 64 17.8 82 82 NE 3 6 29.94 1014 4 6.437376 0 0
9:55 pm 21:55 Hazy 69 20.7 63 17.3 81 81 Calm 29.94 1014 4 6.437376 0 0
10:15 pm 22:15 Hazy 69 20.5 63 17.3 82 82 Calm 29.94 1014 4 6.437376 0 0
10:35 pm 22:35 Clear 68 20 64 17.5 86 86 Calm 30 1016 10 16.09344 0 0
10:55 pm 22:55 Clear 67 19.5 63 17 86 86 Calm 30 1016 10 16.09344 0 0
11:15 pm 23:15 Clear 66 19.1 62 16.6 86 86 Calm 30 1016 10 16.09344 0 0
11:35 pm 23:35 Clear 65 18.5 62 16.7 89 89 Calm 30 1016 10 16.09344 0 0
11:55 pm 23:55 Clear 65 18.2 62 16.9 92 92 Calm 30 1016 7 11.265408 0 0

Powered by AerisWeather